PHASE 3B (AO-10)

Last updated on Sun Jun 21 2026 00:03:19 GMT+0000 (Coordinated Universal Time)

1 14129U 83058B 26170.31181399 .00000155 00000+0 00000+0 0 9991 2 14129 25.9140 219.2125 6010101 116.2527 316.1180 2.05869727295535
UTC large
Height (km)
Speed (km/s)
/
Latitude / Longitude
Inclination (degrees)
Orbital Period (minutes)
Azimuth
Elevation
Range (km)
Doppler Factor

Next 0 passes for location: London (51.5072 / 0.1276)

No passes found over London.
PHASE 3B (AO-10)